Location: Newark
(43.4306°N, 0.3089°E)
Time: 03:38:40
(UTC+00:00)

Transit 2A Rocket - Pass Details

Date: 25 August 2019
Orbit: 592 x 911 km, 66.7° (Epoch: 20 September)

Event Time Altitude Azimuth Distance (km) Brightness Sun altitude
Rises 02:53:22 0° 332° (NNW) 3,019 8.3 -23.0°
Reaches altitude 10° 02:55:50 10° 338° (NNW) 2,057 7.5 -22.7°
Maximum altitude 03:00:17 48° 53° (NE) 811 5.5 -22.1°
Drops below altitude 10° 03:04:29 10° 129° (SE) 1,936 7.2 -21.5°
Sets 03:06:44 0° 135° (SE) 2,821 8.0 -21.2°
